Regional Weather Roundup
Issued by NWS

Home | Current Version | Previous Version | Graphics & Text | Print | Product List | Glossary On
Versions: 1 2 3 4 5 6 7 8 9 10 11 12 13 14 15 16 17 18 19 20 21 22 23 24 25 26 27 28 29 30 31 32 33 34 35 36 37 38 39 40 41 42 43 44 45 46 47 48 49 50
264
ASUS43 KDTX 291701
RWRMI
MICHIGAN HOURLY REGIONAL WEATHER ROUNDUP
NATIONAL WEATHER SERVICE DETROIT/PONTIAC MI
100 PM EDT MON AUG 29 2016

NOTE: "FAIR" INDICATES FEW OR NO CLOUDS BELOW 12,000 FEET WITH NO
SIGNIFICANT WEATHER AND/OR OBSTRUCTION TO VISIBILITY.

MIZ047>049-052>055-059>063-066>070-074>076-081>083-291800-
SOUTHEAST LOWER MICHIGAN

CITY           SKY/WX    TMP DP  RH WIND       PRES   REMARKS
ADRIAN         MOSUNNY   79  68  69 SE3       30.30S
ALMA           CLOUDY    73  70  91 E5        30.32R
ANN ARBOR      SUNNY     79  66  64 E5        30.29S
BAD AXE        SUNNY     75  60  59 NE3       30.31F
CARO           MOSUNNY   77  64  63 CALM      30.29F
DETROIT CITY   SUNNY     78  66  66 CALM      30.29S
DETROIT        MOSUNNY   79  64  60 S7        30.29F
FLINT          MOSUNNY   79  66  64 VRB5      30.30S
GROSSE ILE     SUNNY     79  66  64 E5        30.28S
HILLSDALE      PTSUNNY   79  67  68 S3        30.30S
HOWELL         MOSUNNY   78  67  68 SE3       30.30S

CITY           SKY/WX    TMP DP  RH WIND       PRES   REMARKS
JACKSON        SUNNY     80  63  55 SE7       30.29S
LAMBERTVILLE   PTSUNNY   79  68  68 NE7       30.29S
LANSING        SUNNY     79  65  62 SE5       30.30S
LAPEER         FAIR      76  62  62 CALM      30.30S
MASON          SUNNY     79  64  59 SE3       30.30S
MONROE         SUNNY     79  68  68 SE10      30.29S
MT. CLEMENS    MOSUNNY   78  67  69 E5        30.27F
PONTIAC        MOSUNNY   78  65  63 VRB5      30.29F
PORT HURON     PTSUNNY   75  64  69 N5        30.29S
TRI CITIES     MOSUNNY   77  66  68 CALM      30.31S
MIDLAND        PTSUNNY   77  65  65 SE3       30.29F
TROY           MOSUNNY   81  64  56 NE3       30.31S
SAGINAW HB     MOSUNNY   79  64  61 CALM      30.29F
$$
MIZ043>046-050>051-056>058-064>065-071>073-077>080-291800-
SOUTHWEST LOWER MICHIGAN

CITY           SKY/WX    TMP DP  RH WIND       PRES   REMARKS
BATTLE CREEK   SUNNY     78  67  68 SE5       30.29S
BENTON HARBOR  MOSUNNY   85  71  63 SE6       30.26S HX  90
BIG RAPIDS     CLOUDY    74  69  81 E6        30.31S
COLDWATER      MOSUNNY   80  69  70 SE5       30.29S
FREMONT        FAIR      78  66  67 E5        30.28F
HOLLAND        MOSUNNY   82  70  66 E7        30.28S
GRAND RAPIDS   MOSUNNY   79  67  66 E7        30.29S
IONIA          PTSUNNY   77  65  64 E5        30.29S
KALAMAZOO      MOSUNNY   81  66  60 MISG      30.28S
LUDINGTON      MOSUNNY   79  69  70 W6        30.28R
MARSHALL       MOSUNNY   81  66  61 E5        30.29S
MOUNT PLEASANT CLOUDY    74  68  80 E3        30.30F
MUSKEGON       PTSUNNY   82  68  62 S7        30.27F
SOUTH HAVEN    MOSUNNY   84  71  66 E5        30.27S
$$
MIZ016>042-291800-
NORTHERN LOWER MICHIGAN

CITY           SKY/WX    TMP DP  RH WIND       PRES   REMARKS
ALPENA         SUNNY     76  56  49 VRB6      30.30F
BEAVER ISLAND  CLOUDY    74  60  62 SE6       30.28F
BELLAIRE       SUNNY     80  57  45 SW5       30.28S
CADILLAC       MOSUNNY   75  65  69 SE6       30.30F
CHARLEVOIX     MOSUNNY   78  57  49 SE7       30.30F
FRANKFORT      SUNNY     79  65  60 SW3       30.27F
GAYLORD        SUNNY     76  56  49 VRB5      30.31S
GRAYLING       SUNNY     79  59  50 SE8       30.31F
HARBOR SPRINGS SUNNY     78  62  58 NE3       30.28F
HOUGHTON LAKE  SUNNY     76  63  64 W7        30.32S
MANISTEE       MOSUNNY   81  67  62 NW6       30.27S
OSCODA         SUNNY     74  60  61 E6        30.30F
PELLSTON       SUNNY     77  58  51 E6        30.29F
ROGERS CITY    SUNNY     73  63  72 E6        30.31S
TRAVERSE CITY  PTSUNNY   81  57  43 VRB5      30.27S
$$
MIZ007>008-015-291800-
EASTERN UPPER MICHIGAN

CITY           SKY/WX    TMP DP  RH WIND       PRES   REMARKS
KINROSS        MOSUNNY   73  59  61 S8        30.29F
MACKINAC ISLAN SUNNY     69  61  75 E6        30.29F
NEWBERRY       SUNNY     75  58  54 S13       30.26F
S. S. MARIE    SUNNY     73  59  61 VRB7      30.28F
$$
MIZ004>006-011>014-085-291800-
CENTRAL UPPER MICHIGAN

CITY           SKY/WX    TMP DP  RH WIND       PRES   REMARKS
MANISTIQUE     SUNNY     73  66  78 SE10G17   30.25F
ESCANABA       CLOUDY    72  66  81 S10       30.23F
MENOMINEE      SUNNY    N/A N/A N/A S9          N/A
SAWYER-GWINN   MOSUNNY   73  64  73 S10G18    30.22F
$$
MIZ001>003-009>011-084-291800-
WESTERN UPPER MICHIGAN

CITY           SKY/WX    TMP DP  RH WIND       PRES   REMARKS
IRON MOUNTAIN  CLOUDY    76  66  71 S9        30.22S
HOUGHTON       CLOUDY    79  62  56 W12       30.15S
IRONWOOD       SUNNY     77  64  64 SW6       30.17S
$$

ABBREVIATIONS USED IN REMARKS
   TC - TEMPERATURE IN CELSIUS
  WCI - WIND CHILL INDEX
   HX - HEAT INDEX
  VSB - VISIBILITY





USA.gov is the U.S. government's official web portal to all federal, state and local government web resources and services.